Lapse_Rate
6.0 6.0 6.2 7.1 6.9 7.2 7.8 8.2 8.1 7.3 6.3 6.2 6.5 6.1 5.7 5.5 5.8 5.1 5.4 5.5 5.4 5.2 5.1 5.3 5.1 5.4 5.8 5.9 5.9 5.9 6.0 6.0 5.9 5.8 5.7 5.9 5.6 5.5 5.7 5.5 5.7 5.8 5.8 5.7
6.3 6.2 6.7 6.9 7.1 7.4 7.6 8.1 7.0 6.7 5.8 6.1 6.6 5.7 5.1 5.6 5.6 5.3 5.2 5.2 5.5 5.3 5.2 5.2 5.1 5.6 5.8 5.8 6.0 6.0 5.7 5.5 5.5 5.7 5.8 6.0 6.1 6.0 5.8 5.7 5.7 5.8 5.7 5.8
6.4 7.1 7.3 6.9 7.3 7.6 7.9 7.8 7.6 6.5 6.7 6.2 5.9 5.7 5.2 5.4 5.6 5.3 5.3 5.2 5.6 5.6 5.4 5.3 5.2 5.7 5.7 5.7 5.9 6.1 6.0 5.6 5.6 5.6 5.6 5.5 5.8 5.7 5.8 5.8 5.9 5.8 5.7 5.8
7.0 7.6 7.4 7.7 7.3 7.8 8.1 8.9 7.9 8.2 7.6 6.3 6.7 5.5 5.1 5.2 5.6 5.1 5.3 5.1 5.3 5.5 5.5 5.2 5.0 5.3 5.6 5.7 5.8 6.1 6.0 5.9 5.9 5.7 5.6 5.6 5.5 5.8 6.0 5.6 5.7 5.8 5.9 5.7
7.4 7.7 7.7 7.9 8.0 8.0 8.3 8.8 8.8 8.1 7.5 7.1 6.5 6.8 6.4 5.8 6.0 5.4 5.6 5.4 5.2 5.6 5.6 5.3 4.9 5.4 5.5 5.4 5.8 6.1 6.0 6.1 5.9 5.5 5.8 6.0 5.6 5.8 5.9 5.8 5.8 5.8 5.9 5.8
8.0 8.3 8.3 8.0 8.4 8.3 8.8 9.3 7.8 7.9 7.4 5.9 7.7 7.7 5.9 5.6 6.1 6.0 6.1 5.6 5.4 5.3 5.3 5.4 5.4 5.5 5.5 5.4 5.5 5.8 5.9 6.2 6.2 5.9 6.0 5.6 5.9 5.9 5.8 5.8 6.0 5.6 5.7 5.7
8.3 8.2 8.7 8.5 8.7 8.4 8.5 8.7 8.6 7.8 5.4 6.8 8.6 7.7 6.4 5.1 5.5 5.4 5.4 5.6 5.6 5.3 5.6 5.3 5.6 5.1 5.7 5.7 5.5 5.5 5.9 6.1 6.3 6.2 6.1 6.1 5.9 5.9 5.9 6.1 6.1 5.9 5.9 5.8
8.5 8.5 8.5 9.0 8.3 8.1 8.5 8.8 8.7 7.4 7.6 8.6 8.9 7.2 6.2 5.8 5.5 6.0 5.7 5.0 5.9 5.6 5.4 5.3 5.6 5.5 5.5 5.6 5.9 5.6 5.7 5.9 6.0 6.1 6.1 6.2 6.0 5.8 6.1 6.0 6.3 6.0 5.7 5.8
8.9 8.8 9.2 9.2 8.8 8.6 8.7 8.7 8.9 8.6 9.0 9.0 7.1 6.1 6.0 6.3 6.1 6.1 5.5 5.6 5.8 5.8 5.9 5.9 5.7 5.6 5.1 5.6 6.0 5.5 5.4 5.7 5.7 5.8 5.8 6.1 6.1 6.3 6.1 6.2 6.3 5.8 5.8 5.8
8.7 8.3 8.7 9.3 9.2 8.3 8.5 8.2 8.8 8.8 7.7 8.2 7.2 6.5 6.2 6.0 6.4 6.7 6.4 6.1 5.6 5.7 6.2 6.0 5.6 6.1 5.7 5.5 6.2 6.0 5.7 5.4 5.2 5.7 5.6 5.9 5.9 6.0 6.1 6.1 6.0 6.2 5.7 6.0
8.4 8.1 8.5 8.6 8.8 8.6 8.3 8.0 8.3 8.3 8.5 7.5 6.8 6.6 6.4 6.4 6.5 6.8 6.5 6.1 5.9 5.8 6.5 6.4 5.9 6.0 6.1 5.3 5.9 5.8 5.8 6.1 5.6 5.3 5.0 5.4 5.8 5.7 6.0 6.0 5.7 6.1 6.4 6.1
7.6 8.0 7.9 8.2 8.8 8.6 8.5 8.5 8.4 8.3 8.3 8.9 8.1 6.2 6.0 6.1 6.1 6.0 6.1 5.9 5.9 6.0 6.4 6.7 6.6 6.3 5.8 5.9 5.8 5.5 5.9 5.9 5.5 6.0 5.6 5.6 5.6 5.6 5.7 5.9 5.7 5.8 6.1 6.0
8.1 8.0 7.4 8.8 8.8 8.6 8.6 8.6 8.3 8.3 8.5 9.0 8.5 6.1 6.2 6.3 6.7 6.6 6.7 6.2 5.7 6.2 6.6 6.9 7.0 6.9 6.5 6.1 5.8 5.8 5.4 5.5 5.6 5.6 5.4 5.8 5.9 5.9 5.8 5.9 5.9 5.5 5.8 6.1
8.3 7.5 7.8 7.6 8.3 8.1 8.3 8.4 8.5 8.4 8.7 7.7 7.5 6.0 6.5 6.9 6.3 6.6 6.8 6.0 5.8 6.5 6.6 6.7 7.3 7.0 6.6 6.4 6.2 6.1 6.3 5.9 5.4 5.5 5.7 5.9 5.9 6.1 6.1 5.9 5.9 5.8 5.6 5.9
8.4 7.4 7.4 8.4 8.6 8.1 8.1 8.2 8.6 8.5 8.4 8.3 7.1 7.5 6.2 5.9 5.8 5.8 5.7 6.1 6.2 6.2 6.2 6.6 7.1 7.1 6.8 6.5 6.4 6.4 6.4 5.7 5.2 5.9 5.5 5.5 6.0 6.0 6.1 6.4 6.2 6.1 5.9 5.7
8.5 7.5 7.8 8.6 8.0 8.4 8.2 8.0 8.4 8.8 8.3 8.1 6.9 6.9 6.8 5.9 5.6 5.6 5.8 5.6 6.0 5.8 6.0 6.2 6.6 7.1 7.0 6.6 6.1 6.0 5.9 5.9 5.9 5.3 5.6 5.7 5.6 5.7 6.0 6.1 6.3 6.3 6.5 6.2
8.2 8.1 7.3 8.3 8.0 8.0 8.2 8.4 8.2 8.6 9.1 7.5 6.5 7.1 7.2 6.6 5.8 5.5 5.6 5.8 5.9 5.9 5.5 6.0 7.0 7.0 7.0 6.6 6.4 6.4 6.0 5.9 6.2 6.0 5.7 5.2 5.2 4.9 5.2 5.6 6.2 6.2 6.2 6.2
8.2 8.0 8.1 8.0 8.7 7.9 8.3 8.7 8.7 8.8 9.1 8.4 7.1 6.6 6.8 6.3 5.8 5.6 5.8 5.7 5.9 5.9 6.3 6.4 6.8 7.1 6.8 7.0 6.5 6.3 6.3 6.1 5.9 5.5 5.4 5.9 6.6 6.1 5.7 5.6 5.9 6.1 6.1 6.2
8.0 7.8 8.2 8.3 8.9 8.4 8.9 8.8 9.1 9.0 8.8 8.8 7.4 6.3 5.6 5.5 5.3 5.1 5.2 5.3 6.2 6.1 6.0 5.7 6.1 6.5 6.5 6.5 6.5 6.3 6.4 6.1 6.0 5.8 5.8 6.0 6.5 6.3 6.2 6.2 6.2 6.0 5.8 5.9
7.7 7.7 7.7 8.1 8.3 8.6 8.4 8.7 8.5 8.9 8.3 7.8 7.3 6.7 6.0 5.5 5.6 5.3 5.4 5.5 6.2 6.0 5.4 5.2 5.6 5.7 6.0 6.1 6.2 6.2 6.6 6.4 6.1 6.1 6.0 6.0 5.9 5.9 5.6 5.6 5.8 5.7 5.9 6.3
7.7 7.6 7.6 7.9 8.3 8.1 8.1 7.9 8.3 8.5 8.1 7.6 7.3 7.2 6.6 6.5 6.4 5.5 5.1 5.1 5.8 5.5 5.4 5.4 5.6 5.7 5.6 5.7 5.8 6.2 6.4 6.4 6.4 6.3 6.1 6.0 6.0 6.0 5.9 5.7 5.7 5.7 5.9 6.1
8.0 8.0 7.8 8.0 8.0 8.0 7.5 7.6 8.1 7.4 8.0 7.6 6.7 6.6 6.5 6.3 6.3 5.9 5.4 5.2 5.3 5.7 5.8 5.5 5.6 5.6 5.7 5.7 5.6 5.7 5.8 6.0 6.3 6.4 6.4 6.2 6.1 6.1 6.2 6.1 5.9 5.7 5.6 6.1
8.0 7.6 7.9 7.9 7.6 7.5 7.1 7.2 7.5 7.3 7.8 7.9 7.2 6.9 7.1 6.8 6.3 5.9 6.0 5.6 5.9 6.0 5.8 5.8 5.8 5.6 5.7 5.9 6.1 6.2 6.2 6.0 6.0 6.2 6.4 6.3 6.1 6.0 6.1 6.1 6.1 6.0 5.9 5.8
8.0 7.7 7.8 7.5 7.0 7.5 7.2 7.0 7.3 7.6 7.7 7.8 7.5 7.4 7.3 6.9 6.4 6.1 5.8 5.6 5.6 6.0 5.9 5.8 5.8 5.8 5.8 5.9 5.9 5.9 6.1 6.2 6.2 6.2 6.1 6.0 5.9 5.7 5.7 5.9 5.9 5.9 5.8 5.8
7.5 7.6 7.8 7.7 7.3 7.1 7.0 6.8 7.1 7.4 7.7 7.7 7.3 6.6 6.0 5.7 5.7 5.5 5.4 6.0 6.2 6.0 5.9 6.0 5.8 5.8 5.9 5.8 5.8 5.9 5.9 6.0 6.1 6.1 6.2 6.2 6.2 6.1 5.8 5.6 5.6 5.7 5.7 5.7
7.6 7.3 7.1 7.4 7.2 7.1 6.9 6.7 6.5 6.7 7.0 6.9 6.9 7.1 6.9 6.3 5.9 5.5 5.5 5.6 6.1 6.1 6.1 6.0 5.9 5.8 5.7 5.7 5.7 5.8 5.9 6.1 6.2 6.2 6.2 6.3 6.3 6.2 6.1 6.0 5.9 5.7 5.8 5.7
Wind_Speed
4 3 7 12 13 16 12 10 10 11 10 10 6 8 12 5 6 13 12 9 9 12 11 15 14 14 13 9 8 8 10 7 5 3 5 5 4 3 2 5 9 9 7 7
3 9 13 16 17 18 15 3 7 10 7 12 13 6 4 8 6 11 9 11 12 9 11 12 14 14 12 10 8 9 8 8 5 3 2 3 4 3 3 7 9 8 10 12
10 12 18 17 15 17 12 7 16 8 8 8 10 4 2 2 5 9 14 11 16 12 12 13 14 16 14 12 9 10 8 8 5 6 5 3 4 1 2 2 4 7 11 9
10 18 15 15 11 12 9 1 24 23 12 6 14 4 4 6 2 5 13 11 5 13 15 11 11 16 15 13 12 10 8 7 4 5 4 5 4 3 0 2 3 4 12 6
10 13 14 13 15 12 10 22 24 12 6 6 16 4 3 9 8 8 12 15 14 13 14 8 14 17 17 16 13 12 10 7 5 3 6 5 5 3 2 2 6 3 4 9
13 11 10 8 14 13 9 5 13 5 5 3 14 6 4 9 8 6 15 16 18 14 17 10 14 16 16 15 12 11 12 7 7 7 5 7 7 6 4 1 3 4 3 3
11 15 10 10 5 8 7 3 2 2 3 11 17 6 1 16 16 12 14 23 13 8 17 8 11 12 18 17 15 13 12 8 7 7 6 7 7 3 6 6 4 4 2 1
6 8 13 6 6 8 5 7 5 4 6 6 10 6 6 17 16 18 16 6 8 1 8 5 9 2 10 16 16 15 13 11 8 7 7 7 8 5 4 5 3 4 3 2
4 9 9 9 9 5 6 4 9 3 6 3 4 8 8 11 10 9 6 12 11 10 8 4 9 9 2 8 12 13 14 12 12 9 6 7 8 7 6 7 5 4 5 3
4 4 6 4 3 3 3 5 5 3 2 2 4 6 7 12 10 9 8 10 12 5 11 11 9 9 7 8 11 12 9 8 2 9 7 6 7 7 6 5 7 8 6 6
5 5 8 6 2 5 1 4 2 1 1 4 5 2 3 9 8 11 10 8 8 9 10 9 8 6 8 5 15 12 12 12 11 9 12 7 7 7 6 5 4 11 6 6
4 2 3 6 8 4 5 7 4 4 8 3 5 3 3 10 10 10 9 9 6 11 12 9 8 9 7 8 8 7 6 8 5 4 11 13 7 7 7 7 6 11 8 5
5 5 6 7 2 4 2 6 6 4 3 4 5 5 3 13 12 9 11 7 9 12 12 11 10 9 10 9 9 5 7 6 7 7 12 6 7 8 8 8 7 7 11 12
2 6 4 5 8 4 6 8 9 2 2 5 4 13 10 13 13 12 11 10 10 13 13 12 11 11 10 11 9 8 7 6 3 5 5 7 8 6 5 6 6 6 7 7
4 3 12 14 7 8 7 14 11 4 5 5 15 17 14 13 13 13 10 10 11 12 13 12 11 10 10 11 10 8 6 5 7 7 8 6 8 10 9 8 6 5 4 6
3 5 9 9 10 8 6 11 4 5 12 10 16 11 13 11 11 12 10 12 14 12 12 12 11 12 10 9 8 7 6 6 6 5 5 4 9 8 8 7 8 7 4 5
3 4 1 5 10 9 6 5 7 6 6 15 12 9 15 14 13 11 9 12 12 11 8 9 9 8 8 7 5 7 6 5 6 7 7 6 4 4 5 6 6 7 7 6
3 4 2 4 5 2 5 7 7 9 6 14 18 19 17 14 11 12 10 12 9 9 8 7 7 8 8 7 8 6 5 5 6 5 4 5 5 5 3 2 3 3 4 5
3 3 3 2 3 4 9 6 6 5 7 20 23 19 17 15 14 7 11 13 10 10 7 7 7 8 9 8 7 7 7 7 9 8 8 8 8 5 4 6 5 3 3 2
4 5 3 3 3 1 3 10 12 4 5 8 19 16 21 19 11 6 12 13 12 10 7 7 8 9 9 8 7 8 8 9 8 7 7 7 7 7 7 4 3 2 3 3
1 2 1 4 2 4 7 9 9 4 3 5 13 17 16 8 6 10 14 11 10 8 8 8 8 7 7 7 7 7 7 7 5 6 6 6 6 6 6 6 4 3 3 4
1 3 2 2 2 3 6 8 5 2 9 15 15 17 15 12 15 15 14 11 9 9 7 9 7 6 7 7 7 7 7 5 7 7 6 6 6 6 6 7 6 7 6 4
1 4 2 4 2 3 7 7 7 7 9 7 15 12 10 14 12 9 8 9 8 8 7 7 7 7 7 7 7 7 6 7 7 6 7 7 7 6 6 6 7 7 6 5
4 5 1 4 6 4 9 7 7 7 7 8 9 13 13 13 15 10 7 7 7 7 7 6 8 7 6 7 7 6 7 7 7 7 7 6 6 7 7 5 4 4 5 5
2 3 1 0 2 3 7 7 4 6 7 8 8 6 7 9 9 8 7 8 7 7 7 7 6 7 7 7 6 6 6 7 6 6 7 7 6 6 6 5 4 4 6 5
3 2 3 2 4 4 2 3 7 7 3 5 6 6 6 5 8 8 7 6 7 8 6 7 7 7 6 5 4 5 6 6 6 5 5 5 6 7 5 5 5 9 11 15
Wind_Direction
192 131 215 239 243 249 256 222 153 139 151 113 141 152 177 108 80 273 214 174 158 150 136 144 140 131 134 142 138 129 130 141 133 140 147 158 167 142 197 148 172 160 164 156
195 222 232 227 242 249 259 269 63 62 53 36 128 129 169 160 158 251 304 168 158 139 141 149 144 140 144 146 137 127 131 141 172 116 173 128 93 125 157 173 175 159 163 174
220 237 224 241 236 248 246 227 155 189 89 68 120 81 189 175 149 280 287 302 167 161 158 157 156 149 148 149 145 138 152 163 156 130 103 71 62 34 68 102 135 167 161 189
229 254 228 236 248 239 246 177 121 135 119 158 233 170 237 192 235 266 293 331 183 153 156 160 158 150 154 160 150 140 158 179 149 149 128 135 136 143 8 161 166 168 169 174
245 244 252 218 246 241 249 137 141 145 138 115 212 127 217 152 178 219 260 287 283 169 169 183 164 161 162 160 161 147 161 170 161 167 148 133 136 118 133 31 152 158 167 174
237 240 247 229 240 244 278 220 148 120 88 266 212 147 201 166 183 174 252 248 252 182 184 198 181 164 163 159 155 154 158 174 176 156 148 135 161 157 108 185 167 159 189 210
249 252 248 251 244 290 270 208 229 124 127 241 190 182 150 142 145 156 252 266 253 235 176 202 183 159 163 164 163 162 160 169 175 168 156 142 152 164 183 183 187 170 135 88
221 252 249 214 211 225 265 193 169 136 246 244 146 124 144 132 145 154 161 301 2 264 38 23 3 96 170 167 166 167 167 164 167 186 174 145 146 157 192 194 194 163 174 136
305 224 292 187 216 128 300 237 223 277 276 104 121 87 105 133 140 145 138 115 47 23 15 26 29 19 286 147 167 170 171 176 165 176 187 176 164 172 199 216 196 168 138 146
292 332 308 294 142 39 54 299 359 336 290 30 134 143 141 162 146 109 83 65 92 30 49 70 57 34 346 89 87 66 63 25 239 172 175 191 182 196 211 207 165 132 164 168
21 353 302 51 258 165 288 311 310 123 149 179 158 106 295 122 114 112 92 80 79 76 81 80 73 53 345 60 81 85 76 51 21 9 333 194 194 202 226 233 155 154 174 174
17 280 304 225 229 227 256 267 247 132 289 75 104 112 360 111 109 108 108 109 96 103 106 101 92 85 57 55 91 83 84 62 20 332 319 274 190 187 203 214 212 150 169 193
350 352 337 300 355 17 245 286 272 294 305 288 137 138 142 116 119 113 102 91 97 97 91 86 77 67 66 69 104 134 71 65 24 1 334 314 232 195 199 207 213 177 167 186
170 21 122 240 248 307 300 258 274 269 33 104 70 127 141 126 117 116 114 107 94 95 94 92 80 76 74 82 90 90 86 93 117 58 341 354 23 345 236 229 209 189 184 190
87 54 317 313 233 271 336 330 244 275 67 108 161 153 153 136 129 125 127 122 100 100 97 92 97 93 78 80 85 85 79 76 68 49 30 4 30 27 21 24 314 241 212 202
73 122 305 308 334 349 315 325 266 324 98 92 125 123 135 135 128 131 141 126 114 101 92 113 99 92 104 97 94 91 87 94 106 105 91 31 42 38 14 7 3 17 311 262
74 101 41 276 339 351 341 308 355 7 50 140 142 156 148 143 140 140 129 107 104 111 114 101 104 107 90 90 108 116 120 117 95 82 81 71 73 38 36 10 359 19 7 12
57 97 140 292 360 313 277 51 27 2 348 111 122 140 144 142 136 125 125 112 97 82 77 74 75 72 76 64 46 79 91 98 83 72 64 77 79 72 79 149 43 23 338 356
43 58 336 151 185 256 356 14 26 73 56 130 134 140 141 132 122 114 110 101 104 90 71 62 78 74 57 59 40 46 53 63 55 42 30 21 18 21 26 37 23 14 5 352
42 118 118 339 292 299 78 32 0 3 55 143 140 139 141 137 127 139 116 100 89 81 71 62 78 73 59 39 35 46 52 46 34 25 16 7 6 359 342 330 10 321 15 340
24 358 182 288 267 44 20 20 340 53 279 250 143 141 146 142 157 137 108 101 106 111 105 82 74 76 81 65 58 52 52 41 19 11 357 356 353 339 347 350 327 311 306 317
339 149 222 312 344 161 354 30 63 101 54 86 89 94 93 88 89 102 110 113 114 126 105 94 85 73 68 58 57 54 47 19 15 3 354 346 336 333 329 328 321 320 302 289
294 130 136 114 179 109 73 88 39 72 104 110 113 108 105 108 106 114 116 119 119 110 97 94 94 85 70 60 55 50 15 14 7 3 344 336 327 321 312 317 316 318 310 303
217 55 82 71 356 147 99 68 51 66 84 83 127 144 143 147 149 155 137 129 118 109 103 94 84 82 70 62 55 40 28 16 360 343 335 325 319 306 302 292 276 279 291 298
343 75 115 179 4 38 108 135 117 75 90 94 101 89 88 120 136 138 127 121 118 107 92 89 87 81 70 59 41 40 30 12 6 352 333 323 331 333 315 309 298 294 286 269
45 143 14 217 19 110 33 350 139 127 121 143 140 133 146 119 135 127 130 128 107 99 96 82 75 72 63 50 39 29 39 10 337 339 328 316 328 324 326 321 316 315 306 305